GW5117 Weather Reports


Display with metric or nautical units.
time (UTC)temp
F
wind
direction
speed
MPH
gust
MPH
rain 1hr
in
rain 24hr
in
rain mn
in
humidity
%
barometer
mb
20260510120331 51 179 0.0 0.0 0.00 0.00 0.00 99 1016.1
20260510115826 51 181 0.0 0.0 0.00 0.00 0.00 99 1016.0
20260510115324 50 181 0.0 0.0 0.00 0.00 0.00 99 1016.1
20260510114819 49 180 0.0 0.0 0.00 0.00 0.00 99 1015.8
20260510114317 49 178 0.0 0.0 0.00 0.00 0.00 99 1016.0
20260510113816 49 201 0.0 0.0 0.00 0.00 0.00 99 1015.7
20260510113314 48 184 0.0 0.0 0.00 0.00 0.00 99 1015.5
20260510112810 48 197 0.0 0.0 0.00 0.00 0.00 99 1015.4
20260510112307 48 186 0.0 0.0 0.00 0.00 0.00 99 1015.1
20260510111803 47 190 0.0 0.0 0.00 0.00 0.00 99 1015.4
20260510111300 47 183 0.0 0.0 0.00 0.00 0.00 99 1015.2
20260510110759 47 188 0.0 0.0 0.00 0.00 0.00 99 1015.2
20260510110258 47 189 0.0 0.0 0.00 0.00 0.00 99 1015.1
20260510105758 47 189 0.0 0.0 0.00 0.00 0.00 99 1014.9
20260510105252 47 192 0.0 0.0 0.00 0.00 0.00 99 1014.8
20260510104749 47 195 0.0 0.0 0.00 0.00 0.00 99 1014.9
20260510104247 47 196 0.0 0.0 0.00 0.00 0.00 99 1014.8
20260510103743 47 198 0.0 0.0 0.00 0.00 0.00 99 1014.8
20260510103240 47 206 0.0 0.0 0.00 0.00 0.00 99 1014.7
20260510102740 47 208 0.0 0.0 0.00 0.00 0.00 99 1014.6
20260510102236 47 189 0.0 0.0 0.00 0.00 0.00 99 1014.8
20260510101734 47 187 0.0 0.0 0.00 0.00 0.00 99 1014.9
20260510101227 47 185 0.0 0.0 0.00 0.00 0.00 99 1014.7
20260510100722 47 187 0.0 0.0 0.00 0.00 0.00 99 1014.5
20260510100221 47 187 0.0 0.0 0.00 0.00 0.00 99 1014.6
20260510095721 47 189 0.0 0.0 0.00 0.00 0.00 99 1014.3
20260510095216 47 189 0.0 0.0 0.00 0.00 0.00 99 1014.1
20260510094715 47 189 0.0 0.0 0.00 0.00 0.00 99 1014.1
20260510094211 47 196 0.0 0.0 0.00 0.00 0.00 99 1014.2
20260510093707 47 198 0.0 0.0 0.00 0.00 0.00 99 1014.1
20260510093204 47 200 0.0 0.0 0.00 0.00 0.00 99 1014.2
20260510092700 47 190 0.0 0.0 0.00 0.00 0.00 99 1013.8
20260510092156 47 191 0.0 0.0 0.00 0.00 0.00 99 1014.0
20260510091652 47 202 0.0 0.0 0.00 0.00 0.00 99 1013.9
20260510091148 47 196 0.0 0.0 0.00 0.00 0.00 99 1013.9
20260510090645 47 188 0.0 0.0 0.00 0.00 0.00 99 1013.8
20260510090142 47 188 0.0 0.0 0.00 0.00 0.00 99 1013.9
20260510085637 48 189 0.0 0.0 0.00 0.00 0.00 99 1013.7
20260510085132 47 201 0.0 0.0 0.00 0.00 0.00 99 1013.9
20260510084629 47 194 0.0 0.0 0.00 0.00 0.00 99 1013.9
20260510084126 47 194 0.0 0.0 0.00 0.00 0.00 99 1013.8
20260510083622 48 194 0.0 0.0 0.00 0.00 0.00 99 1013.7
20260510083119 48 200 0.0 0.0 0.00 0.00 0.00 99 1013.7
20260510082615 48 201 0.0 0.0 0.00 0.00 0.00 99 1013.8
20260510082111 48 198 0.0 0.0 0.00 0.00 0.00 99 1013.7
20260510081606 48 199 0.0 0.0 0.00 0.00 0.00 99 1013.6
20260510081102 48 199 0.0 0.0 0.00 0.00 0.00 99 1013.7
20260510080602 48 196 0.0 0.0 0.00 0.00 0.00 99 1013.5
20260510080058 48 195 0.0 0.0 0.00 0.00 0.00 99 1013.7
20260510075555 48 197 0.0 0.0 0.00 0.00 0.00 99 1013.4
20260510075052 48 209 0.0 0.0 0.00 0.00 0.00 99 1013.3
20260510074550 48 206 0.0 0.0 0.00 0.00 0.00 99 1013.4
20260510074045 48 191 0.0 0.0 0.00 0.00 0.00 99 1013.3
20260510073541 48 191 0.0 0.0 0.00 0.00 0.00 99 1013.2
20260510073039 48 200 0.0 0.0 0.00 0.00 0.00 99 1013.4
20260510072535 48 201 1.0 2.0 0.00 0.00 0.00 99 1013.3
20260510072031 48 201 0.0 0.0 0.00 0.00 0.00 99 1013.4
20260510071527 48 192 0.0 1.0 0.00 0.00 0.00 99 1013.5
20260510071026 48 203 0.0 2.0 0.00 0.00 0.00 99 1013.4
20260510070522 48 212 0.0 0.0 0.00 0.00 0.00 99 1013.4
20260510070019 48 203 1.0 1.0 0.00 0.00 0.00 99 1013.4
20260510065515 48 194 1.0 2.0 0.00 0.00 0.00 99 1013.4
20260510065011 48 214 0.0 0.0 0.00 0.00 0.00 99 1013.5
20260510064508 48 199 0.0 0.0 0.00 0.00 0.00 99 1013.3
20260510064005 48 201 0.0 2.0 0.00 0.00 0.00 99 1013.4
20260510063502 48 205 0.0 1.0 0.00 0.00 0.00 99 1013.5
20260510062959 48 180 0.0 1.0 0.00 0.00 0.00 99 1013.5
20260510062455 48 210 1.0 2.0 0.00 0.00 0.00 99 1013.4
20260510061949 48 196 0.0 1.0 0.00 0.00 0.00 99 1013.4
20260510061447 48 196 0.0 0.0 0.00 0.00 0.00 99 1013.6
20260510060943 48 196 0.0 2.0 0.00 0.00 0.00 99 1013.4
20260510060440 48 196 0.0 0.0 0.00 0.00 0.00 99 1013.5
20260510055936 49 196 0.0 1.0 0.00 0.00 0.00 99 1013.6
20260510055432 48 203 0.0 0.0 0.00 0.00 0.00 99 1013.5
20260510054925 49 198 0.0 0.0 0.00 0.00 0.00 99 1013.7
20260510054420 49 195 0.0 0.0 0.00 0.00 0.00 99 1013.7
20260510053915 49 197 0.0 0.0 0.00 0.00 0.00 99 1013.9
20260510053411 48 200 0.0 0.0 0.00 0.00 0.00 99 1013.8
20260510052908 48 200 0.0 1.0 0.00 0.00 0.00 99 1013.8
20260510052403 49 196 0.0 0.0 0.00 0.00 0.00 99 1013.8
20260510051900 49 190 0.0 0.0 0.00 0.00 0.00 99 1013.8
20260510051356 49 202 0.0 0.0 0.00 0.00 0.00 99 1013.9
20260510050853 49 194 0.0 0.0 0.00 0.00 0.00 99 1013.9
20260510050350 49 224 0.0 2.0 0.00 0.00 0.00 99 1014.1
20260510045847 49 189 0.0 0.0 0.00 0.00 0.00 99 1014.1
20260510045343 49 179 0.0 0.0 0.00 0.00 0.00 99 1013.8
20260510044841 49 213 0.0 0.0 0.00 0.00 0.00 99 1013.9
20260510044337 49 206 0.0 0.0 0.00 0.00 0.00 99 1013.8
20260510043834 49 197 0.0 0.0 0.00 0.00 0.00 99 1013.9
20260510043330 49 192 0.0 0.0 0.00 0.00 0.00 99 1014.0
20260510042828 49 196 0.0 0.0 0.00 0.00 0.00 99 1014.0
20260510042324 49 204 0.0 0.0 0.00 0.00 0.00 99 1013.8
20260510041820 49 198 0.0 1.0 0.00 0.00 0.00 99 1013.7
20260510041318 49 199 1.0 1.0 0.00 0.00 0.00 99 1013.9
20260510040815 49 200 1.0 2.0 0.00 0.00 0.00 99 1013.9
20260510040311 49 193 0.0 0.0 0.00 0.00 0.00 99 1013.8
20260510035807 49 206 0.0 1.0 0.00 0.00 0.00 99 1013.9
20260510035306 49 201 0.0 0.0 0.00 0.00 0.00 99 1013.8
20260510034758 49 202 0.0 0.0 0.00 0.00 0.00 99 1013.9
20260510034256 49 195 0.0 1.0 0.00 0.00 0.00 99 1014.0
20260510033753 50 196 0.0 0.0 0.00 0.00 0.00 99 1013.8
20260510033250 50 189 0.0 0.0 0.00 0.00 0.00 99 1013.7
20260510032746 50 202 1.0 1.0 0.00 0.00 0.00 99 1013.7
20260510032243 50 197 0.0 1.0 0.00 0.00 0.00 99 1013.7
20260510031738 50 196 0.0 0.0 0.00 0.00 0.00 99 1013.8
20260510031234 51 201 0.0 0.0 0.00 0.00 0.00 99 1013.7
20260510030733 51 201 0.0 0.0 0.00 0.00 0.00 99 1013.5
20260510030230 50 201 0.0 0.0 0.00 0.00 0.00 99 1013.6
20260510025728 51 203 0.0 1.0 0.00 0.00 0.00 98 1013.6
20260510025225 51 201 0.0 0.0 0.00 0.00 0.00 99 1013.5
20260510024722 51 199 0.0 1.0 0.00 0.00 0.00 98 1013.3
20260510024219 51 209 0.0 1.0 0.00 0.00 0.00 98 1013.2
20260510023714 51 192 1.0 2.0 0.00 0.00 0.00 98 1013.2
20260510023211 51 198 0.0 0.0 0.00 0.00 0.00 98 1013.3
20260510022707 52 201 0.0 0.0 0.00 0.00 0.00 98 1013.3
20260510022202 52 203 0.0 0.0 0.00 0.00 0.00 98 1013.2
20260510021657 52 202 0.0 0.0 0.00 0.00 0.00 97 1013.2
20260510021155 52 199 1.0 1.0 0.00 0.00 0.00 97 1013.0
20260510020655 52 202 0.0 1.0 0.00 0.00 0.00 97 1013.2
20260510020151 52 209 0.0 0.0 0.00 0.00 0.00 97 1013.0
20260510015647 52 197 1.0 2.0 0.00 0.00 0.00 96 1012.8
20260510015144 52 205 1.0 2.0 0.00 0.00 0.00 96 1012.9
20260510014638 53 209 0.0 0.0 0.00 0.00 0.00 96 1012.7
20260510014136 53 209 0.0 0.0 0.00 0.00 0.00 95 1012.6
20260510013636 54 209 0.0 0.0 0.00 0.00 0.00 95 1012.3
20260510013132 54 208 0.0 0.0 0.00 0.00 0.00 95 1012.3
20260510012632 54 206 0.0 0.0 0.00 0.00 0.00 94 1012.1
20260510012129 54 210 0.0 0.0 0.00 0.00 0.00 94 1012.0
20260510011628 54 213 0.0 0.0 0.00 0.00 0.00 94 1012.0
20260510011125 55 201 0.0 1.0 0.00 0.00 0.00 93 1011.9
20260510010621 55 201 0.0 0.0 0.00 0.00 0.00 92 1012.0
20260510010118 56 214 0.0 0.0 0.00 0.00 0.00 91 1012.0
20260510005613 56 217 0.0 0.0 0.00 0.00 0.00 90 1011.8
20260510005111 57 217 0.0 0.0 0.00 0.00 0.00 89 1011.8
20260510004609 57 214 0.0 0.0 0.00 0.00 0.00 89 1011.7
20260510004107 58 219 0.0 0.0 0.00 0.00 0.00 88 1011.7
20260510003603 58 218 0.0 0.0 0.00 0.00 0.00 87 1011.7
20260510003059 59 215 0.0 0.0 0.00 0.00 0.00 85 1011.6
20260510002554 59 211 0.0 0.0 0.00 0.00 0.00 85 1011.4
20260510002051 60 215 0.0 0.0 0.00 0.00 0.00 84 1011.5
20260510001548 60 205 0.0 0.0 0.00 0.00 0.00 82 1011.5
20260510001047 61 243 1.0 1.0 0.00 0.00 0.00 81 1011.3
20260510000542 61 213 0.0 1.0 0.00 0.00 0.00 80 1011.3
20260510000039 62 236 0.0 0.0 0.00 0.00 0.00 79 1011.3
20260509235535 62 223 0.0 0.0 0.00 0.00 0.00 78 1011.2
20260509235032 63 263 0.0 1.0 0.00 0.00 0.00 77 1011.2
20260509234528 63 238 0.0 1.0 0.00 0.00 0.00 75 1011.2
20260509234027 64 210 0.0 2.0 0.00 0.00 0.00 73 1011.1
20260509233524 64 226 0.0 1.0 0.00 0.00 0.00 74 1011.0
20260509233021 65 265 1.0 2.0 0.00 0.00 0.00 68 1011.1
20260509232518 65 195 0.0 2.0 0.00 0.00 0.00 74 1011.1
20260509232014 65 228 0.0 1.0 0.00 0.00 0.00 73 1011.2
20260509231510 65 269 1.0 2.0 0.00 0.00 0.00 69 1011.1
20260509231008 65 191 0.0 1.0 0.00 0.00 0.00 69 1011.1
20260509230505 66 279 1.0 2.0 0.00 0.00 0.00 70 1011.1
20260509230001 67 277 0.0 1.0 0.00 0.00 0.00 65 1011.2
20260509225457 67 203 0.0 2.0 0.00 0.00 0.00 66 1011.0
20260509224953 69 218 0.0 2.0 0.00 0.00 0.00 59 1011.1
20260509224448 71 278 1.0 3.0 0.00 0.00 0.00 59 1011.1
20260509223946 72 166 1.0 2.0 0.00 0.00 0.00 55 1011.1
20260509223442 71 210 0.0 0.0 0.00 0.00 0.00 60 1011.1
20260509222940 72 262 0.0 2.0 0.00 0.00 0.00 56 1011.1
20260509222435 72 76 0.0 2.0 0.00 0.00 0.00 54 1011.2
20260509221931 72 228 0.0 4.0 0.00 0.00 0.00 54 1011.3
20260509221428 71 141 0.0 1.0 0.00 0.00 0.00 56 1011.2
20260509220924 73 180 1.0 4.0 0.00 0.00 0.00 55 1011.3
20260509220420 72 189 1.0 2.0 0.00 0.00 0.00 55 1011.3
20260509215916 73 115 0.0 1.0 0.00 0.00 0.00 55 1011.3
20260509215411 72 210 1.0 2.0 0.00 0.00 0.00 53 1011.3
20260509214910 70 213 0.0 1.0 0.00 0.00 0.00 56 1011.3
20260509214406 71 48 0.0 2.0 0.00 0.00 0.00 58 1011.4
20260509213903 72 72 1.0 1.0 0.00 0.00 0.00 53 1011.4
20260509213359 71 195 2.0 7.0 0.00 0.00 0.00 55 1011.2
20260509212857 70 357 0.0 3.0 0.00 0.00 0.00 60 1011.3
20260509212354 72 336 3.0 4.0 0.00 0.00 0.00 55 1011.5
20260509211850 72 121 0.0 2.0 0.00 0.00 0.00 54 1011.2
20260509211341 73 4 2.0 3.0 0.00 0.00 0.00 56 1011.4
20260509210837 72 183 0.0 2.0 0.00 0.00 0.00 54 1011.2
20260509210335 69 194 0.0 0.0 0.00 0.00 0.00 58 1011.3
20260509205834 69 201 1.0 2.0 0.00 0.00 0.00 58 1011.4
20260509205329 69 190 3.0 4.0 0.00 0.00 0.00 59 1011.4
20260509204826 69 179 0.0 2.0 0.00 0.00 0.00 62 1011.6
20260509204322 71 297 2.0 3.0 0.00 0.00 0.00 60 1011.5
20260509203819 71 175 0.0 1.0 0.00 0.00 0.00 58 1011.3
20260509203316 70 144 0.0 3.0 0.00 0.00 0.00 60 1011.5
20260509202812 70 53 1.0 3.0 0.00 0.00 0.00 60 1011.3
20260509202309 70 162 1.0 2.0 0.00 0.00 0.00 59 1011.3
20260509201807 71 290 1.0 2.0 0.00 0.00 0.00 58 1011.4
20260509201305 69 99 0.0 0.0 0.00 0.00 0.00 59 1011.2
20260509200801 70 153 0.0 1.0 0.00 0.00 0.00 61 1011.3
20260509200256 70 292 1.0 1.0 0.00 0.00 0.00 60 1011.3
20260509195752 70 196 0.0 3.0 0.00 0.00 0.00 62 1011.5
20260509195247 69 326 3.0 6.0 0.00 0.00 0.00 61 1011.5
20260509194742 70 289 1.0 4.0 0.00 0.00 0.00 61 1011.4
20260509194239 71 321 0.0 2.0 0.00 0.00 0.00 60 1011.5
20260509193736 71 299 5.0 7.0 0.00 0.00 0.00 57 1011.6
20260509193235 71 160 2.0 4.0 0.00 0.00 0.00 58 1011.4
20260509192732 70 256 1.0 6.0 0.00 0.00 0.00 64 1011.7
20260509192227 70 195 2.0 2.0 0.00 0.00 0.00 59 1011.5
20260509191723 70 88 0.0 1.0 0.00 0.00 0.00 60 1011.6
20260509191219 69 300 2.0 6.0 0.00 0.00 0.00 60 1011.7
20260509190715 69 152 0.0 3.0 0.00 0.00 0.00 63 1011.6
20260509190212 68 96 1.0 4.0 0.00 0.00 0.00 63 1011.7
20260509185710 68 153 0.0 2.0 0.00 0.00 0.00 63 1011.6
20260509185206 69 164 1.0 6.0 0.00 0.00 0.00 61 1011.6
20260509184704 68 161 1.0 2.0 0.00 0.00 0.00 64 1011.4
20260509184201 69 252 2.0 2.0 0.00 0.00 0.00 62 1011.8
20260509183657 67 150 2.0 3.0 0.00 0.00 0.00 63 1011.6
20260509183152 67 187 2.0 3.0 0.00 0.00 0.00 68 1011.6
20260509182648 67 129 0.0 1.0 0.00 0.00 0.00 65 1011.6
20260509182146 67 125 0.0 2.0 0.00 0.00 0.00 65 1011.6
20260509181643 66 151 1.0 2.0 0.00 0.00 0.00 66 1011.6
20260509181140 67 134 2.0 4.0 0.00 0.00 0.00 64 1011.8
20260509180637 66 156 0.0 1.0 0.00 0.00 0.00 63 1011.8
20260509180133 66 212 2.0 2.0 0.00 0.00 0.00 64 1011.9
20260509175629 65 132 0.0 1.0 0.00 0.00 0.00 66 1011.7
20260509175127 65 137 0.0 1.0 0.00 0.00 0.00 69 1011.8
20260509174622 66 143 0.0 0.0 0.00 0.00 0.00 68 1011.9
20260509174118 66 237 1.0 2.0 0.00 0.00 0.00 64 1011.9
20260509173614 66 342 3.0 4.0 0.00 0.00 0.00 62 1011.9
20260509173109 65 295 0.0 2.0 0.00 0.00 0.00 65 1012.0
20260509172607 64 22 0.0 3.0 0.00 0.00 0.00 65 1012.0
20260509172102 64 286 0.0 1.0 0.00 0.00 0.00 65 1012.2
20260509171558 64 62 1.0 2.0 0.00 0.00 0.00 64 1012.1
20260509171054 64 198 0.0 0.0 0.00 0.00 0.00 68 1012.2
20260509170551 64 15 2.0 2.0 0.00 0.00 0.00 65 1012.2
20260509170046 64 148 0.0 0.0 0.00 0.00 0.00 65 1012.1
20260509165545 63 350 0.0 1.0 0.00 0.00 0.00 66 1012.1
20260509165040 63 173 0.0 0.0 0.00 0.00 0.00 67 1012.3
20260509164537 63 260 1.0 1.0 0.00 0.00 0.00 64 1012.4
20260509164032 63 123 0.0 0.0 0.00 0.00 0.00 65 1012.4
20260509163532 63 226 1.0 4.0 0.00 0.00 0.00 65 1012.1
20260509163032 63 143 0.0 0.0 0.00 0.00 0.00 65 1012.3
20260509162529 63 144 0.0 0.0 0.00 0.00 0.00 63 1012.3
20260509162025 63 159 0.0 3.0 0.00 0.00 0.00 63 1012.3
20260509161522 63 189 0.0 4.0 0.00 0.00 0.00 63 1012.2
20260509161022 63 326 1.0 2.0 0.00 0.00 0.00 65 1012.0
20260509160518 63 302 2.0 4.0 0.00 0.00 0.00 62 1012.2
20260509160014 63 188 1.0 3.0 0.00 0.00 0.00 66 1012.0
20260509155510 63 150 1.0 2.0 0.00 0.00 0.00 63 1012.1
20260509155006 63 163 2.0 3.0 0.00 0.00 0.00 66 1011.9
20260509154502 62 184 1.0 1.0 0.00 0.00 0.00 66 1012.0
20260509154000 62 168 0.0 1.0 0.00 0.00 0.00 67 1012.1
20260509153457 61 168 1.0 2.0 0.00 0.00 0.00 71 1012.1
20260509152953 61 160 0.0 1.0 0.00 0.00 0.00 72 1012.1
20260509152449 60 139 1.0 2.0 0.00 0.00 0.00 69 1012.1
20260509151946 60 86 0.0 0.0 0.00 0.00 0.00 74 1012.1
20260509151442 59 71 0.0 0.0 0.00 0.00 0.00 80 1012.0
20260509150941 59 353 0.0 0.0 0.00 0.00 0.00 83 1012.3
20260509150438 58 353 0.0 0.0 0.00 0.00 0.00 83 1011.9
20260509145937 58 352 0.0 0.0 0.00 0.00 0.00 84 1012.1
20260509145437 58 352 0.0 0.0 0.00 0.00 0.00 84 1012.0
20260509144932 58 352 0.0 0.0 0.00 0.00 0.00 85 1012.3
20260509144430 58 341 0.0 0.0 0.00 0.00 0.00 85 1012.2
20260509143927 58 340 0.0 0.0 0.00 0.00 0.00 83 1012.2
20260509143424 58 340 0.0 0.0 0.00 0.00 0.00 82 1012.2
20260509142920 0 0.0 0.0 0.00 0.00 0.00 1012.2
20260509142417 0 0.0 0.0 0.00 0.00 0.00 1012.1
20260509141912 0 0.0 0.0 0.00 0.00 0.00 1012.4
20260509141410 0 0.0 0.0 0.00 0.00 0.00 1012.6
20260509140906 0 0.0 0.0 0.00 0.00 0.00 1012.3
20260509140403 0 0.0 0.0 0.00 0.00 0.00 1011.8
20260509135901 0 0.0 0.0 0.00 0.00 0.00 1012.0
20260509135358 0 0.0 0.0 0.00 0.00 0.00 1012.0
20260509134855 0 0.0 0.0 0.00 0.00 0.00 1012.0
20260509134353 0 0.0 0.0 0.00 0.00 0.00 1012.1
20260509133849 0 0.0 0.0 0.00 0.00 0.00 1012.1
20260509133346 58 357 0.0 0.0 0.00 0.00 0.00 73 1011.9
20260509132845 58 357 0.0 0.0 0.00 0.00 0.00 73 1012.0
20260509132343 58 351 0.0 1.0 0.00 0.00 0.00 71 1012.1
20260509131839 58 21 0.0 1.0 0.00 0.00 0.00 73 1012.1
20260509131336 57 28 0.0 3.0 0.00 0.00 0.00 75 1011.9
20260509130833 57 312 1.0 1.0 0.00 0.00 0.00 78 1012.0
20260509130328 57 300 0.0 0.0 0.00 0.00 0.00 79 1012.2
20260509125825 56 42 0.0 0.0 0.00 0.00 0.00 85 1012.1
20260509125321 55 42 0.0 0.0 0.00 0.00 0.00 84 1012.2
20260509124818 55 42 0.0 0.0 0.00 0.00 0.00 84 1012.3
20260509124315 55 42 0.0 0.0 0.00 0.00 0.00 84 1012.4
20260509123813 54 359 0.0 0.0 0.00 0.00 0.00 88 1012.3
20260509123310 54 353 0.0 0.0 0.00 0.00 0.00 86 1012.3
20260509122805 54 353 0.0 0.0 0.00 0.00 0.00 86 1012.1
20260509122305 53 353 0.0 0.0 0.00 0.00 0.00 88 1012.2
20260509121759 53 353 0.0 0.0 0.00 0.00 0.00 88 1012.3
20260509121257 52 353 0.0 0.0 0.00 0.00 0.00 88 1012.4
20260509120755 52 353 0.0 0.0 0.00 0.00 0.00 89 1012.3